Member area
Imprimable
Challenges > Delhalle - Dinant, 26/08/2018, BEL - La Descente de la Lesse
List of reports > Delhalle - 20.75km - Result
Search: Page: [1]
66 Entries
 
Complains are not accepted anymore. Results are final.
PlaceNrNameAgeNATLeagueTeamRealTimeTkmMoy.ScrPtsCity
1.576RIVEZ PIERRE61BELACTELA THURE1:25:581:25:584:09 14.4839972SARS LA BUISSIERE
2.12BULTOT CHRISTIAN60BELARCH1:27:121:27:134:13 14.2847954SCHALTIN
3.4498MAHIEU HUGUES63BEL1:33:211:33:364:31 13.3080869BEAURAING
4.5234PIERLOT SERGE60BELRCNAMUR1:36:181:36:244:39 12.92110824VEZIN
5.921ROSSI CLAUDE60BEL1:37:511:37:594:44 12.71126801YVOIR
6.5582RICHARD ANDRÉ64BELARCH1:41:181:41:224:54 12.28162749S
7.4438SOUMAGNE FRANCIS66BELGERPINNES&CO1:42:561:43:044:58 12.08186722CHARLEROI
8.5531STASSIN FRANCIS63BELFLEURUS ATHLÉTISME1:43:391:43:535:01 11.99197710COURCELLES
9.5521ROSILLON DOMINIQUE61BELARCH1:43:401:44:035:01 11.97202707SORÉE
10.5464EVRARD JEAN-LUC62BELARCH1:46:171:46:185:08 11.71231669JENEFFE-EN-CONDROZ
11.5236BOON STEPHANE60BEL1:46:211:46:355:09 11.68237665MEUX
12.5311GOOSSE GÉRARD66BEL1:47:171:47:305:11 11.58248651HATRIVAL
13.5315PRETER SERGE61BELFLEU1:48:521:49:025:16 11.42269627VELAINE SUR SAMBRE
14.22DE MASI GIANNI65ITAFLEU1:49:261:49:315:17 11.37273620WANFERCÉE-BAULET
15.494MATHY JEAN-LUC65BELRCNAMUR1:50:141:50:185:19 11.29293603NAMUR
16.615MAUS JAN60BELROBA1:50:171:50:285:20 11.27294602RAMSEL
17.5418MARCHAL ETIENNE63BELJCCS1:50:421:50:505:21 11.23299596GEDINNE
18.296DESSEILLE ERNEST64BELRCNAMUR1:50:491:50:575:21 11.22301594WÉPION
19.878FOSCHI EDGARDO67BELUACAC FRONTIÈRES1:52:421:53:165:28 10.99323567CHÂTELINEAU
20.45PLOYAERT ERIC63BEL1:52:551:53:315:29 10.97328563LOBBES
21.4484HOYLAERTS EDDY65BEL1:54:521:55:335:35 10.78352535SAINT GEORGES S/M
22.14COLMANT OLIVIER60BELJC INCOURT1:55:051:55:365:35 10.77354532INCOURT
23.5538DANIELOU BRUNO60FRAECJAJURA1:55:341:55:435:35 10.76356527S
24.5207DE STAERCKE JEAN-BENOIT61BEL1:55:371:56:055:36 10.73361524HALTINNE
25.567DECLERCQ JOE60BELCEPAL1:56:091:56:195:37 10.70363518BRUXELLES
26.4397GAZENGEL DIDIER60FRA1:56:291:56:435:38 10.67372511LAIFOUR
27.426QUINET BERNARD66BELFLEU1:56:281:56:505:38 10.66374510GILLY
28.5414COMPERE MICHEL60BELJAMES1:57:371:58:225:43 10.52390493OTTIGNIES
29.912GILSON RAYMOND60BELHRC1:58:181:58:395:44 10.49394485SAINT-LÉGER
30.5431DEWEZ ALEX62BEL1:58:141:58:425:44 10.49395486ERPENT
31.4458LEBRUN THIERRY60BELRCNAMUR1:58:241:58:565:44 10.47399482WIERDE
32.4408FLABOREA FRANCO62BELZATAC1:58:411:58:585:44 10.47401479MONT-SUR-MARCHIENNE
33.5352HERMAN PHILIPPE61BELARCH1:58:471:59:125:45 10.45404477MIÉCRET
34.55ROBERTI DE WINGHE MAX63BELARCHRONVAU1:59:482:00:095:48 10.36415463ARCHENNES
35.5324LARDENOIS PIERRE63NLDKNAUS.V. FORTUNA '672:01:192:01:385:52 10.24434441SON EN BREUGEL
36.5312VAN DEN BROEKE PATRICK60BELRATRACE2:01:292:01:555:53 10.21439438DEINZE
37.5523BARON JOEL61FRA2:03:142:03:365:58 10.07456416MAUBEUGE
38.5501HOUCHART JEAN MICHEL64BELSPIBO2:03:462:04:105:59 10.03463408MONS
39.755VAN HEULENBERGHE FRANK62BEL2:03:382:04:216:00 10.01465408GENT
40.4343CARPANTIER JEAN-JACQUES63BELSWIFT RUNNING CLUB2:03:592:04:286:00 10.00467404RIXENSART
41.301QUINET JEAN PAUL68BEL2:04:092:04:306:00 10.00468403GILLY
42.523MACHADO ANTONIO66PRTRONVAU2:05:112:05:246:03 9.93476391GEMBLOUX
43.683DE LEENER JEAN-MARIE64BELRCABWNAC2:05:372:05:556:05 9.89486383LOT
44.5284RADELET EMMANUEL62BELARCH2:05:542:06:056:05 9.87488379CINEY
45.4437VAN BLADEL LODEWIJK63BELMEELOPERS MEISE2:05:192:06:076:05 9.87489383WOLVERTEM
46.5483DEWAEL PHILIPPE68BELJAMES2:05:312:06:126:05 9.87494380COUTURE-ST-GERMAIN
47.5194SARGUINI ABDELAZIZ62BEL2:09:222:09:526:16 9.59534331VILVOORDE
48.5305GRANDFILS ERIC61BELSPIBO2:09:452:10:106:17 9.57538326MONS
49.5535AUDOOR ALAIN60BELVELAINES2:10:002:10:296:18 9.54547320AINIERES
50.251GODEFRIDI THIERRY67BELMARATHONIEN C-E2:10:042:10:586:19 9.51550318RIXENSART
51.510GEORGE JEAN-POL67BEL2:11:062:11:096:20 9.49554308BEAUVECHAIN
52.982DUPONT PIERRE A.O.62BELJAMES2:12:102:12:556:25 9.37573291LIMAL
53.5278GILAIN PHILIPPE60BELRCNAMUR2:13:002:13:306:27 9.33578282NAMUR
54.713DUSSART JEAN-PIERRE69BELUAC2:13:412:14:016:28 9.29588272CHATELINEAU
55.4365MATTHYSSEN JULIEN65BEL2:14:082:14:416:30 9.24597265BRASSCHAAT
56.569VERPOORTEN ROGER68BELINFRA TRAIL LISOGNE2:14:532:15:096:31 9.21602257LISOGNE
57.4508VANDAMME DANIËL64BELTEMPO KOEKELARE2:15:562:16:236:35 9.13609246SINT MICHIELS BRUGGE
58.4410MALCOURANT JEAN CLAUDE63BELRUNNING CLUB METTET2:16:072:16:316:35 9.12611244JEMEPPE SUR SAMBRE
59.5390HIEL JEAN-LUC63BEL2:17:162:17:286:38 9.06618232DINANT
60.5409GUIZIEN GUY65FRA2:16:502:17:316:38 9.05619235BRUXELLES
61.155AKKERMANS FRANCOIS68BEL2:17:202:17:536:39 9.03625228BRASSCHAAT
62.4476PANNEELS JEAN-JACQUES66BELAXA RUNNING/R.O.S2:18:532:19:416:44 8.91641210VILLERS-LA-VILLE
63.317GUIRCHE ALBERT66BELSPIBO2:36:202:36:467:34 7.9471655FEIGNIES
64.796RENARD JACQUES60BELSPIBO2:39:312:40:017:43 7.7871933MONS
65.448ROMAIN BERNARD61BEL2:41:132:42:047:49 7.6872420CHASTRE
66.4451BARBE YVAN68BEL2:42:152:43:077:52 7.6372613WAUTHIER-BRAINE
DNF: did not finish; DSQ: disqualified; Speed in km/h
Page: [1]